Home > Time Zones > World Clock > Weather > France > Caen > Past weeks

Flag for France Weather past 2 weeks in Caen, France

Now
39 °F

Partly cloudy.


Feels Like: 32 °F
Forecast: 38 / 45 °F
Wind: 12 mph from Northwest

Location: Caen Airport

Current Time: Jan 28, 2015 at 11:52:44 PM

Latest Report: Jan 28, 2015 at 11:00 PM


Visibility: N/A

Pressure: 29.74 "Hg

Humidity: 81%

Dew point: 34 °F

Location of CaenLocation

Historic Weather in Caen — Graph

°F

Caen temperature yesterday

Maximum temperature yesterday: 48 °F (at 2:00 PM)
Minimum temperature yesterday: 37 °F (at 3:00 AM)
Average temperature yesterday: 43 °F

Past Weeks' High & Low Weather Summary

 TemperatureHumidityPressure
High52 °F (Jan 15, 1:30 AM)100% (Jan 16, 7:30 AM)30.54 "Hg (Jan 16, 7:30 AM)
Low27 °F (Jan 22, 3:30 AM)53% (Jan 19, 3:30 PM)29.36 "Hg (Jan 15, 7:00 AM)
Average40 °F83%30.01 "Hg
* Reported Jan 13 11:00 PM — Jan 28 11:00 PM, Caen, Weather by CustomWeather, © 2014

Note: Actual official high and low records may vary slightly from our data, if they occured in-between our weather recording intervals... More about our weather records

Advertising

Caen weather history for previous 24 hours

 ConditionsComfort  
Time TempWeatherWind HumidityBarometerVisibility
11:00 PM
Jan 28
39 °FPartly cloudy.12 mph81%29.74 "HgN/A
10:30 PM39 °FClear.8 mph75%29.74 "HgN/A
10:00 PM41 °FClear.10 mph70%29.74 "HgN/A
9:30 PM41 °FClear.9 mph70%29.77 "HgN/A
9:00 PM41 °FClear.10 mph76%29.77 "HgN/A
8:30 PM41 °FOvercast.12 mph76%29.77 "HgN/A
8:00 PM43 °FMostly cloudy.12 mph76%29.77 "HgN/A
7:30 PM43 °FClear.12 mph81%29.77 "HgN/A
7:00 PM43 °FClear.13 mph81%29.77 "HgN/A
6:30 PM43 °FPartly cloudy.17 mph81%29.80 "HgN/A
6:00 PM43 °FLight rain. Mostly cloudy.22 mph81%29.77 "Hg6 mi
5:30 PM45 °FBroken clouds.21 mph76%29.77 "HgN/A
5:00 PM45 °FBroken clouds.21 mph87%29.77 "HgN/A
4:30 PM46 °FBroken clouds.21 mph76%29.74 "HgN/A
4:00 PM48 °FLight rain. Partly sunny.32 mph76%29.74 "Hg5 mi
3:30 PM50 °FMore clouds than sun.26 mph76%29.74 "HgN/A
3:00 PM50 °FPartly sunny.21 mph82%29.74 "HgN/A
2:30 PM50 °FBroken clouds.23 mph88%29.74 "HgN/A
2:00 PM50 °FDrizzle. Mostly cloudy.26 mph88%29.77 "Hg4 mi
1:30 PM50 °FLight rain. Fog.20 mph94%29.77 "Hg3 mi
1:00 PM48 °FDrizzle. Fog.18 mph100%29.77 "Hg2 mi
12:30 PM48 °FDrizzle. Fog.22 mph94%29.80 "Hg2 mi
12:00 PM48 °FOvercast.24 mph94%29.83 "HgN/A
11:30 AM48 °FOvercast.18 mph87%29.86 "HgN/A
11:00 AM46 °FLow clouds.21 mph93%29.89 "HgN/A
10:30 AM45 °FOvercast.16 mph93%29.92 "HgN/A
10:00 AM45 °FFog.17 mph93%29.92 "Hg2 mi
9:30 AM45 °FPartly sunny.17 mph93%29.95 "HgN/A
9:00 AM45 °FPartly sunny.17 mph87%29.95 "HgN/A
8:30 AM45 °FPartly cloudy.21 mph87%29.98 "HgN/A
8:00 AM45 °FOvercast.15 mph87%29.98 "HgN/A
7:30 AM45 °FPassing clouds.16 mph81%30.01 "HgN/A
7:00 AM45 °FOvercast.13 mph76%30.04 "HgN/A
6:30 AM45 °FOvercast.14 mph76%30.07 "HgN/A
6:00 AM45 °FOvercast.13 mph76%30.07 "HgN/A
5:30 AM43 °FOvercast.10 mph87%30.09 "HgN/A
5:00 AM43 °FOvercast.12 mph87%30.09 "HgN/A
4:30 AM45 °FOvercast.14 mph81%30.12 "HgN/A
4:00 AM45 °FOvercast.13 mph81%30.12 "HgN/A
3:30 AM45 °FOvercast.13 mph81%30.15 "HgN/A
3:00 AM45 °FOvercast.13 mph87%30.18 "HgN/A
2:30 AM45 °FMostly cloudy.10 mph87%30.18 "HgN/A
2:00 AM43 °FMostly cloudy.9 mph93%30.21 "HgN/A
1:30 AM43 °FMostly cloudy.9 mph93%30.21 "HgN/A
1:00 AM43 °FPassing clouds.9 mph87%30.21 "HgN/A
12:30 AM43 °FMostly cloudy.9 mph87%30.24 "HgN/A
12:00 AM43 °FOvercast.8 mph87%30.27 "HgN/A
11:30 PM
Jan 27
45 °FMostly cloudy.9 mph81%30.30 "HgN/A
11:00 PM45 °FMostly cloudy.7 mph81%30.30 "HgN/A
Weather by CustomWeather, © 2014

See weather overviewHow to use our weather pages